| time (UTC) | temp F | wind direction | speed MPH | gust MPH | rain 1hr in | rain 24hr in | rain mn in | humidity % | barometer mb |
| 20260903211418 | 140 | 141 | 8.0 | 10.0 | 0.00 | 0.00 | 0.00 | 1008.9 | |
| 20260903210914 | 140 | 143 | 1.0 | 6.0 | 0.00 | 0.00 | 0.00 | 1008.8 | |
| 20260903210413 | 140 | 127 | 7.0 | 8.0 | 0.00 | 0.00 | 0.00 | 1009.1 | |
| 20260903205909 | 140 | 141 | 1.0 | 3.0 | 0.00 | 0.00 | 0.00 | 1008.9 | |
| 20260903205408 | 140 | 137 | 11.0 | 13.0 | 0.00 | 0.00 | 0.00 | 1009.4 | |
| 20260903204903 | 140 | 121 | 7.0 | 8.0 | 0.00 | 0.00 | 0.00 | 1009.3 | |
| 20260903204359 | 140 | 184 | 7.0 | 8.0 | 0.00 | 0.00 | 0.00 | 1009.4 | |
| 20260903203854 | 140 | 134 | 0.0 | 1.0 | 0.00 | 0.00 | 0.00 | 1009.5 | |
| 20260903203350 | 140 | 129 | 10.0 | 11.0 | 0.00 | 0.00 | 0.00 | 1009.6 | |
| 20260903202849 | 140 | 104 | 7.0 | 9.0 | 0.00 | 0.00 | 0.00 | 1009.7 | |
| 20260903202346 | 140 | 147 | 3.0 | 6.0 | 0.00 | 0.00 | 0.00 | 1009.8 | |
| 20260903201845 | 140 | 109 | 2.0 | 2.0 | 0.00 | 0.00 | 0.00 | 1009.7 | |
| 20260903201340 | 140 | 170 | 7.0 | 8.0 | 0.00 | 0.00 | 0.00 | 1009.8 | |
| 20260903200839 | 140 | 185 | 7.0 | 9.0 | 0.00 | 0.00 | 0.00 | 1009.7 | |
| 20260903200335 | 140 | 153 | 2.0 | 8.0 | 0.00 | 0.00 | 0.00 | 1010.1 | |
| 20260903195830 | 140 | 167 | 5.0 | 7.0 | 0.00 | 0.00 | 0.00 | 1010.1 | |
| 20260903195326 | 140 | 100 | 9.0 | 10.0 | 0.00 | 0.00 | 0.00 | 1010.2 | |
| 20260903194821 | 140 | 83 | 7.0 | 8.0 | 0.00 | 0.00 | 0.00 | 1010.0 | |
| 20260903194316 | 140 | 120 | 3.0 | 7.0 | 0.00 | 0.00 | 0.00 | 1010.2 | |
| 20260903193812 | 140 | 169 | 4.0 | 7.0 | 0.00 | 0.00 | 0.00 | 1010.4 | |
| 20260903193308 | 140 | 128 | 9.0 | 13.0 | 0.00 | 0.00 | 0.00 | 1010.3 | |
| 20260903192803 | 140 | 115 | 9.0 | 11.0 | 0.00 | 0.00 | 0.00 | 1010.3 | |
| 20260903192259 | 140 | 147 | 0.0 | 0.0 | 0.00 | 0.00 | 0.00 | 1010.5 | |
| 20260903191755 | 140 | 106 | 11.0 | 14.0 | 0.00 | 0.00 | 0.00 | 1010.5 | |
| 20260903191250 | 140 | 119 | 10.0 | 11.0 | 0.00 | 0.00 | 0.00 | 1010.6 | |
| 20260903190745 | 140 | 138 | 8.0 | 11.0 | 0.00 | 0.00 | 0.00 | 1010.8 | |
| 20260903190244 | 140 | 162 | 0.0 | 0.0 | 0.00 | 0.00 | 0.00 | 1011.0 | |
| 20260903185739 | 140 | 107 | 3.0 | 5.0 | 0.00 | 0.00 | 0.00 | 1011.2 | |
| 20260903185238 | 140 | 128 | 9.0 | 10.0 | 0.00 | 0.00 | 0.00 | 1011.2 | |
| 20260903184736 | 140 | 117 | 8.0 | 9.0 | 0.00 | 0.00 | 0.00 | 1011.1 | |
| 20260903184231 | 140 | 129 | 11.0 | 13.0 | 0.00 | 0.00 | 0.00 | 1011.5 | |
| 20260903183726 | 140 | 173 | 3.0 | 7.0 | 0.00 | 0.00 | 0.00 | 1011.3 | |
| 20260903183221 | 140 | 146 | 0.0 | 3.0 | 0.00 | 0.00 | 0.00 | 1011.4 | |
| 20260903182720 | 140 | 107 | 9.0 | 11.0 | 0.00 | 0.00 | 0.00 | 1011.6 | |
| 20260903182215 | 140 | 114 | 9.0 | 11.0 | 0.00 | 0.00 | 0.00 | 1011.7 | |
| 20260903181714 | 140 | 124 | 9.0 | 10.0 | 0.00 | 0.00 | 0.00 | 1011.7 | |
| 20260903181209 | 140 | 102 | 6.0 | 7.0 | 0.00 | 0.00 | 0.00 | 1011.9 | |
| 20260903180704 | 140 | 183 | 3.0 | 6.0 | 0.00 | 0.00 | 0.00 | 1011.7 | |
| 20260903180158 | 140 | 134 | 5.0 | 9.0 | 0.00 | 0.00 | 0.00 | 1012.1 | |
| 20260903175657 | 140 | 137 | 7.0 | 9.0 | 0.00 | 0.00 | 0.00 | 1011.9 | |
| 20260903175156 | 140 | 138 | 7.0 | 11.0 | 0.00 | 0.00 | 0.00 | 1011.8 | |
| 20260903174651 | 140 | 168 | 9.0 | 10.0 | 0.00 | 0.00 | 0.00 | 1012.2 | |
| 20260903174146 | 140 | 160 | 2.0 | 5.0 | 0.00 | 0.00 | 0.00 | 1012.2 | |
| 20260903173641 | 140 | 111 | 6.0 | 8.0 | 0.00 | 0.00 | 0.00 | 1012.1 | |
| 20260903173138 | 140 | 165 | 6.0 | 7.0 | 0.00 | 0.00 | 0.00 | 1012.3 | |
| 20260903172637 | 140 | 120 | 3.0 | 7.0 | 0.00 | 0.00 | 0.00 | 1012.3 | |
| 20260903172132 | 140 | 126 | 0.0 | 0.0 | 0.00 | 0.00 | 0.00 | 1012.4 | |
| 20260903171632 | 140 | 116 | 0.0 | 0.0 | 0.00 | 0.00 | 0.00 | 1012.5 | |
| 20260903171129 | 140 | 171 | 5.0 | 8.0 | 0.00 | 0.00 | 0.00 | 1012.6 | |
| 20260903170627 | 140 | 159 | 0.0 | 0.0 | 0.00 | 0.00 | 0.00 | 1012.4 | |
| 20260903170123 | 140 | 128 | 1.0 | 2.0 | 0.00 | 0.00 | 0.00 | 1012.7 | |
| 20260903165621 | 140 | 156 | 4.0 | 5.0 | 0.00 | 0.00 | 0.00 | 1012.5 | |
| 20260903165116 | 140 | 170 | 4.0 | 8.0 | 0.00 | 0.00 | 0.00 | 1012.5 | |
| 20260903164611 | 140 | 170 | 0.0 | 0.0 | 0.00 | 0.00 | 0.00 | 1012.4 | |
| 20260903164107 | 140 | 152 | 6.0 | 7.0 | 0.00 | 0.00 | 0.00 | 1012.5 | |
| 20260903163607 | 140 | 125 | 5.0 | 7.0 | 0.00 | 0.00 | 0.00 | 1012.4 | |
| 20260903163103 | 140 | 113 | 8.0 | 9.0 | 0.00 | 0.00 | 0.00 | 1012.4 | |
| 20260903162559 | 140 | 130 | 6.0 | 9.0 | 0.00 | 0.00 | 0.00 | 1012.7 | |
| 20260903162055 | 140 | 95 | 6.0 | 7.0 | 0.00 | 0.00 | 0.00 | 1012.7 | |
| 20260903161550 | 140 | 139 | 0.0 | 0.0 | 0.00 | 0.00 | 0.00 | 1012.5 | |
| 20260903161046 | 140 | 163 | 7.0 | 8.0 | 0.00 | 0.00 | 0.00 | 1012.8 | |
| 20260903160545 | 140 | 121 | 2.0 | 3.0 | 0.00 | 0.00 | 0.00 | 1012.4 | |
| 20260903160039 | 140 | 134 | 0.0 | 0.0 | 0.00 | 0.00 | 0.00 | 1012.8 | |
| 20260903155538 | 140 | 128 | 4.0 | 5.0 | 0.00 | 0.00 | 0.00 | 1012.7 | |
| 20260903155034 | 140 | 164 | 1.0 | 5.0 | 0.00 | 0.00 | 0.00 | 1012.6 | |
| 20260903154530 | 140 | 117 | 7.0 | 10.0 | 0.00 | 0.00 | 0.00 | 1012.4 | |
| 20260903154026 | 140 | 129 | 8.0 | 8.0 | 0.00 | 0.00 | 0.00 | 1012.6 | |
| 20260903153521 | 140 | 142 | 7.0 | 7.0 | 0.00 | 0.00 | 0.00 | 1012.5 | |
| 20260903153017 | 140 | 123 | 9.0 | 11.0 | 0.00 | 0.00 | 0.00 | 1012.4 | |
| 20260903152512 | 140 | 103 | 9.0 | 10.0 | 0.00 | 0.00 | 0.00 | 1012.5 | |
| 20260903152009 | 140 | 160 | 4.0 | 5.0 | 0.00 | 0.00 | 0.00 | 1012.5 | |
| 20260903151508 | 140 | 151 | 7.0 | 7.0 | 0.00 | 0.00 | 0.00 | 1012.7 | |
| 20260903151002 | 140 | 99 | 0.0 | 0.0 | 0.00 | 0.00 | 0.00 | 1012.4 | |
| 20260903150457 | 140 | 128 | 5.0 | 7.0 | 0.00 | 0.00 | 0.00 | 1012.4 | |
| 20260903145952 | 140 | 147 | 6.0 | 7.0 | 0.00 | 0.00 | 0.00 | 1012.5 | |
| 20260903145447 | 140 | 187 | 0.0 | 0.0 | 0.00 | 0.00 | 0.00 | 1012.3 | |
| 20260903144942 | 140 | 151 | 0.0 | 0.0 | 0.00 | 0.00 | 0.00 | 1012.3 | |
| 20260903144441 | 140 | 112 | 0.0 | 0.0 | 0.00 | 0.00 | 0.00 | 1012.3 | |
| 20260903143937 | 140 | 196 | 3.0 | 5.0 | 0.00 | 0.00 | 0.00 | 1012.2 | |
| 20260903143434 | 140 | 137 | 7.0 | 9.0 | 0.00 | 0.00 | 0.00 | 1012.5 | |
| 20260903142929 | 140 | 135 | 0.0 | 0.0 | 0.00 | 0.00 | 0.00 | 1012.2 | |
| 20260903142424 | 140 | 165 | 5.0 | 6.0 | 0.00 | 0.00 | 0.00 | 1012.4 | |
| 20260903141920 | 140 | 152 | 2.0 | 5.0 | 0.00 | 0.00 | 0.00 | 1012.4 | |
| 20260903141416 | 140 | 164 | 0.0 | 0.0 | 0.00 | 0.00 | 0.00 | 1012.4 | |
| 20260903140912 | 140 | 188 | 0.0 | 0.0 | 0.00 | 0.00 | 0.00 | 1012.4 | |
| 20260903140407 | 140 | 126 | 0.0 | 0.0 | 0.00 | 0.00 | 0.00 | 1012.8 | |
| 20260903135901 | 140 | 98 | 0.0 | 0.0 | 0.00 | 0.00 | 0.00 | 1012.8 | |
| 20260903135352 | 140 | 143 | 0.0 | 0.0 | 0.00 | 0.00 | 0.00 | 1012.8 | |
| 20260903134850 | 140 | 138 | 0.0 | 0.0 | 0.00 | 0.00 | 0.00 | 1012.6 | |
| 20260903134345 | 140 | 124 | 0.0 | 0.0 | 0.00 | 0.00 | 0.00 | 1012.8 | |
| 20260903133843 | 140 | 146 | 0.0 | 0.0 | 0.00 | 0.00 | 0.00 | 1012.7 | |
| 20260903133340 | 140 | 108 | 0.0 | 0.0 | 0.00 | 0.00 | 0.00 | 1012.8 | |
| 20260903132834 | 140 | 122 | 0.0 | 0.0 | 0.00 | 0.00 | 0.00 | 1012.8 | |
| 20260903132330 | 140 | 117 | 0.0 | 0.0 | 0.00 | 0.00 | 0.00 | 1013.0 | |
| 20260903131825 | 140 | 121 | 0.0 | 0.0 | 0.00 | 0.00 | 0.00 | 1012.7 | |
| 20260903131324 | 140 | 101 | 0.0 | 0.0 | 0.00 | 0.00 | 0.00 | 1012.8 | |
| 20260903130823 | 140 | 82 | 0.0 | 0.0 | 0.00 | 0.00 | 0.00 | 1012.8 | |
| 20260903130318 | 140 | 106 | 0.0 | 0.0 | 0.00 | 0.00 | 0.00 | 1012.6 | |
| 20260903125817 | 140 | 87 | 0.0 | 0.0 | 0.00 | 0.00 | 0.00 | 1012.8 | |
| 20260903125313 | 140 | 72 | 0.0 | 0.0 | 0.00 | 0.00 | 0.00 | 1012.8 | |
| 20260903124812 | 140 | 85 | 0.0 | 0.0 | 0.00 | 0.00 | 0.00 | 1012.6 | |
| 20260903124308 | 140 | 124 | 0.0 | 0.0 | 0.00 | 0.00 | 0.00 | 1012.6 | |
| 20260903123806 | 140 | 101 | 0.0 | 0.0 | 0.00 | 0.00 | 0.00 | 1012.7 | |
| 20260903123306 | 140 | 96 | 0.0 | 0.0 | 0.00 | 0.00 | 0.00 | 1012.7 | |
| 20260903122804 | 140 | 61 | 0.0 | 0.0 | 0.00 | 0.00 | 0.00 | 1012.5 | |
| 20260903122259 | 140 | 85 | 0.0 | 0.0 | 0.00 | 0.00 | 0.00 | 1012.7 | |
| 20260903121756 | 140 | 97 | 0.0 | 0.0 | 0.00 | 0.00 | 0.00 | 1012.4 | |
| 20260903121247 | 140 | 100 | 0.0 | 0.0 | 0.00 | 0.00 | 0.00 | 1012.3 | |
| 20260903120743 | 140 | 91 | 0.0 | 0.0 | 0.00 | 0.00 | 0.00 | 1012.3 | |
| 20260903120236 | 140 | 83 | 0.0 | 0.0 | 0.00 | 0.00 | 0.00 | 1012.3 | |
| 20260903115735 | 140 | 48 | 0.0 | 0.0 | 0.00 | 0.00 | 0.00 | 1012.3 | |
| 20260903115230 | 140 | 56 | 0.0 | 0.0 | 0.00 | 0.00 | 0.00 | 1012.3 | |
| 20260903114725 | 140 | 78 | 0.0 | 0.0 | 0.00 | 0.00 | 0.00 | 1011.8 | |
| 20260903114220 | 140 | 76 | 0.0 | 0.0 | 0.00 | 0.00 | 0.00 | 1012.2 | |
| 20260903113715 | 140 | 69 | 0.0 | 0.0 | 0.00 | 0.00 | 0.00 | 1012.2 | |
| 20260903113211 | 140 | 109 | 0.0 | 0.0 | 0.00 | 0.00 | 0.00 | 1012.1 | |
| 20260903112707 | 140 | 66 | 0.0 | 0.0 | 0.00 | 0.00 | 0.00 | 1012.0 | |
| 20260903112202 | 140 | 82 | 0.0 | 0.0 | 0.00 | 0.00 | 0.00 | 1012.0 | |
| 20260903111701 | 140 | 81 | 0.0 | 0.0 | 0.00 | 0.00 | 0.00 | 1011.8 | |
| 20260903111156 | 140 | 88 | 0.0 | 0.0 | 0.00 | 0.00 | 0.00 | 1011.8 | |
| 20260903110653 | 140 | 87 | 0.0 | 0.0 | 0.00 | 0.00 | 0.00 | 1011.8 | |
| 20260903110148 | 140 | 84 | 0.0 | 0.0 | 0.00 | 0.00 | 0.00 | 1011.8 | |
| 20260903105642 | 140 | 84 | 0.0 | 0.0 | 0.00 | 0.00 | 0.00 | 1012.0 | |
| 20260903105137 | 140 | 105 | 0.0 | 0.0 | 0.00 | 0.00 | 0.00 | 1011.6 | |
| 20260903104637 | 140 | 76 | 0.0 | 0.0 | 0.00 | 0.00 | 0.00 | 1011.8 | |
| 20260903104133 | 140 | 87 | 0.0 | 0.0 | 0.00 | 0.00 | 0.00 | 1011.7 | |
| 20260903103628 | 140 | 86 | 0.0 | 0.0 | 0.00 | 0.00 | 0.00 | 1011.8 | |
| 20260903103124 | 140 | 70 | 0.0 | 0.0 | 0.00 | 0.00 | 0.00 | 1011.8 | |
| 20260903102620 | 140 | 76 | 0.0 | 0.0 | 0.00 | 0.00 | 0.00 | 1011.7 | |
| 20260903102118 | 140 | 79 | 0.0 | 0.0 | 0.00 | 0.00 | 0.00 | 1011.7 | |
| 20260903101613 | 140 | 63 | 0.0 | 0.0 | 0.00 | 0.00 | 0.00 | 1011.7 | |
| 20260903101108 | 140 | 38 | 0.0 | 0.0 | 0.00 | 0.00 | 0.00 | 1011.8 | |
| 20260903100603 | 140 | 65 | 0.0 | 0.0 | 0.00 | 0.00 | 0.00 | 1011.8 | |
| 20260903095600 | 140 | 39 | 0.0 | 0.0 | 0.00 | 0.00 | 0.00 | 1011.7 | |
| 20260903095054 | 140 | 25 | 0.0 | 0.0 | 0.00 | 0.00 | 0.00 | 1011.8 | |
| 20260903094555 | 140 | 62 | 0.0 | 0.0 | 0.00 | 0.00 | 0.00 | 1011.5 | |
| 20260903094050 | 140 | 93 | 0.0 | 0.0 | 0.00 | 0.00 | 0.00 | 1011.8 | |
| 20260903093545 | 140 | 74 | 0.0 | 0.0 | 0.00 | 0.00 | 0.00 | 1011.5 | |
| 20260903093040 | 140 | 154 | 0.0 | 0.0 | 0.00 | 0.00 | 0.00 | 1011.6 | |
| 20260903092540 | 140 | 162 | 0.0 | 0.0 | 0.00 | 0.00 | 0.00 | 1011.7 | |
| 20260903092040 | 140 | 161 | 0.0 | 0.0 | 0.00 | 0.00 | 0.00 | 1011.7 | |
| 20260903091538 | 140 | 159 | 0.0 | 0.0 | 0.00 | 0.00 | 0.00 | 1011.6 | |
| 20260903091032 | 140 | 144 | 0.0 | 0.0 | 0.00 | 0.00 | 0.00 | 1011.8 | |
| 20260903090529 | 140 | 160 | 0.0 | 0.0 | 0.00 | 0.00 | 0.00 | 1011.7 | |
| 20260903090027 | 140 | 160 | 0.0 | 0.0 | 0.00 | 0.00 | 0.00 | 1011.8 | |
| 20260903085526 | 140 | 145 | 0.0 | 0.0 | 0.00 | 0.00 | 0.00 | 1011.6 | |
| 20260903085022 | 140 | 155 | 0.0 | 0.0 | 0.00 | 0.00 | 0.00 | 1011.7 | |
| 20260903084520 | 140 | 126 | 0.0 | 0.0 | 0.00 | 0.00 | 0.00 | 1011.9 | |
| 20260903084014 | 140 | 152 | 0.0 | 0.0 | 0.00 | 0.00 | 0.00 | 1011.7 | |
| 20260903083510 | 140 | 92 | 0.0 | 0.0 | 0.00 | 0.00 | 0.00 | 1012.0 | |
| 20260903083005 | 140 | 98 | 0.0 | 0.0 | 0.00 | 0.00 | 0.00 | 1011.9 | |
| 20260903082505 | 140 | 151 | 0.0 | 0.0 | 0.00 | 0.00 | 0.00 | 1012.0 | |
| 20260903082000 | 140 | 155 | 0.0 | 0.0 | 0.00 | 0.00 | 0.00 | 1012.2 | |
| 20260903081455 | 140 | 115 | 0.0 | 0.0 | 0.00 | 0.00 | 0.00 | 1011.9 | |
| 20260903080951 | 140 | 117 | 0.0 | 0.0 | 0.00 | 0.00 | 0.00 | 1011.9 | |
| 20260903080447 | 140 | 111 | 0.0 | 0.0 | 0.00 | 0.00 | 0.00 | 1012.0 | |
| 20260903075943 | 140 | 142 | 0.0 | 0.0 | 0.00 | 0.00 | 0.00 | 1012.0 | |
| 20260903075438 | 140 | 167 | 0.0 | 0.0 | 0.00 | 0.00 | 0.00 | 1012.2 | |
| 20260903074933 | 140 | 106 | 0.0 | 0.0 | 0.00 | 0.00 | 0.00 | 1011.9 | |
| 20260903074432 | 140 | 130 | 0.0 | 0.0 | 0.00 | 0.00 | 0.00 | 1012.1 | |
| 20260903073928 | 140 | 141 | 0.0 | 0.0 | 0.00 | 0.00 | 0.00 | 1012.2 | |
| 20260903073423 | 140 | 95 | 0.0 | 0.0 | 0.00 | 0.00 | 0.00 | 1012.1 | |
| 20260903072918 | 140 | 130 | 0.0 | 0.0 | 0.00 | 0.00 | 0.00 | 1012.3 | |
| 20260903072414 | 140 | 137 | 0.0 | 0.0 | 0.00 | 0.00 | 0.00 | 1012.3 | |
| 20260903071911 | 140 | 137 | 0.0 | 0.0 | 0.00 | 0.00 | 0.00 | 1012.5 | |
| 20260903071407 | 140 | 121 | 0.0 | 0.0 | 0.00 | 0.00 | 0.00 | 1012.2 | |
| 20260903070902 | 140 | 100 | 0.0 | 0.0 | 0.00 | 0.00 | 0.00 | 1012.4 | |
| 20260903070357 | 140 | 109 | 0.0 | 0.0 | 0.00 | 0.00 | 0.00 | 1012.2 | |
| 20260903065852 | 140 | 112 | 0.0 | 0.0 | 0.00 | 0.00 | 0.00 | 1012.3 | |
| 20260903065351 | 140 | 112 | 0.0 | 1.0 | 0.00 | 0.00 | 0.00 | 1012.3 | |
| 20260903064850 | 140 | 103 | 0.0 | 0.0 | 0.00 | 0.00 | 0.00 | 1012.3 | |
| 20260903064346 | 140 | 97 | 0.0 | 1.0 | 0.00 | 0.00 | 0.00 | 1012.4 | |
| 20260903063842 | 140 | 120 | 0.0 | 0.0 | 0.00 | 0.00 | 0.00 | 1012.5 | |
| 20260903063337 | 140 | 125 | 6.0 | 9.0 | 0.00 | 0.00 | 0.00 | 1012.5 | |
| 20260903062833 | 140 | 108 | 0.0 | 0.0 | 0.00 | 0.00 | 0.00 | 1012.4 | |
| 20260903062332 | 140 | 124 | 2.0 | 6.0 | 0.00 | 0.00 | 0.00 | 1012.6 | |
| 20260903061829 | 140 | 134 | 0.0 | 2.0 | 0.00 | 0.00 | 0.00 | 1012.5 | |
| 20260903061327 | 140 | 128 | 0.0 | 0.0 | 0.00 | 0.00 | 0.00 | 1012.9 | |
| 20260903060824 | 140 | 117 | 0.0 | 0.0 | 0.00 | 0.00 | 0.00 | 1012.5 | |
| 20260903060323 | 140 | 111 | 0.0 | 0.0 | 0.00 | 0.00 | 0.00 | 1012.6 | |
| 20260903055821 | 140 | 129 | 0.0 | 0.0 | 0.00 | 0.00 | 0.00 | 1012.5 | |
| 20260903055320 | 140 | 135 | 0.0 | 0.0 | 0.00 | 0.00 | 0.00 | 1012.2 | |
| 20260903054815 | 140 | 123 | 4.0 | 7.0 | 0.00 | 0.00 | 0.00 | 1012.5 | |
| 20260903054315 | 140 | 141 | 0.0 | 0.0 | 0.00 | 0.00 | 0.00 | 1012.4 | |
| 20260903053811 | 140 | 102 | 1.0 | 2.0 | 0.00 | 0.00 | 0.00 | 1012.5 | |
| 20260903053306 | 140 | 118 | 0.0 | 0.0 | 0.00 | 0.00 | 0.00 | 1012.3 | |
| 20260903052802 | 140 | 133 | 0.0 | 0.0 | 0.00 | 0.00 | 0.00 | 1012.5 | |
| 20260903052257 | 140 | 167 | 0.0 | 0.0 | 0.00 | 0.00 | 0.00 | 1012.4 | |
| 20260903051752 | 140 | 133 | 0.0 | 0.0 | 0.00 | 0.00 | 0.00 | 1012.4 | |
| 20260903051247 | 140 | 116 | 0.0 | 0.0 | 0.00 | 0.00 | 0.00 | 1012.3 | |
| 20260903050743 | 140 | 106 | 0.0 | 0.0 | 0.00 | 0.00 | 0.00 | 1012.2 | |
| 20260903050236 | 140 | 150 | 0.0 | 0.0 | 0.00 | 0.00 | 0.00 | 1012.3 | |
| 20260903045731 | 140 | 117 | 0.0 | 0.0 | 0.00 | 0.00 | 0.00 | 1012.1 | |
| 20260903045227 | 140 | 112 | 0.0 | 0.0 | 0.00 | 0.00 | 0.00 | 1012.2 | |
| 20260903044718 | 140 | 114 | 0.0 | 0.0 | 0.00 | 0.00 | 0.00 | 1012.1 | |
| 20260903044212 | 140 | 111 | 1.0 | 7.0 | 0.00 | 0.00 | 0.00 | 1012.3 | |
| 20260903043710 | 140 | 118 | 1.0 | 2.0 | 0.00 | 0.00 | 0.00 | 1012.3 | |
| 20260903043209 | 140 | 99 | 0.0 | 0.0 | 0.00 | 0.00 | 0.00 | 1012.1 | |
| 20260903042708 | 140 | 92 | 5.0 | 7.0 | 0.00 | 0.00 | 0.00 | 1012.0 | |
| 20260903042203 | 140 | 106 | 0.0 | 0.0 | 0.00 | 0.00 | 0.00 | 1011.9 | |
| 20260903041700 | 140 | 95 | 6.0 | 8.0 | 0.00 | 0.00 | 0.00 | 1012.2 | |
| 20260903041155 | 140 | 92 | 0.0 | 0.0 | 0.00 | 0.00 | 0.00 | 1012.0 | |
| 20260903040654 | 140 | 120 | 0.0 | 0.0 | 0.00 | 0.00 | 0.00 | 1012.3 | |
| 20260903040150 | 140 | 98 | 5.0 | 8.0 | 0.00 | 0.00 | 0.00 | 1012.0 | |
| 20260903035646 | 140 | 99 | 0.0 | 0.0 | 0.00 | 0.00 | 0.00 | 1011.9 | |
| 20260903035142 | 140 | 112 | 2.0 | 7.0 | 0.00 | 0.00 | 0.00 | 1012.0 | |
| 20260903034642 | 140 | 103 | 4.0 | 8.0 | 0.00 | 0.00 | 0.00 | 1012.0 | |
| 20260903034137 | 140 | 103 | 9.0 | 10.0 | 0.00 | 0.00 | 0.00 | 1012.1 | |
| 20260903033633 | 140 | 115 | 0.0 | 0.0 | 0.00 | 0.00 | 0.00 | 1012.1 | |
| 20260903033132 | 140 | 123 | 0.0 | 0.0 | 0.00 | 0.00 | 0.00 | 1012.2 | |
| 20260903032628 | 140 | 115 | 0.0 | 0.0 | 0.00 | 0.00 | 0.00 | 1012.1 | |
| 20260903032123 | 140 | 131 | 0.0 | 0.0 | 0.00 | 0.00 | 0.00 | 1011.9 | |
| 20260903031618 | 140 | 119 | 5.0 | 8.0 | 0.00 | 0.00 | 0.00 | 1012.1 | |
| 20260903031113 | 140 | 97 | 6.0 | 7.0 | 0.00 | 0.00 | 0.00 | 1012.1 | |
| 20260903030609 | 140 | 143 | 3.0 | 9.0 | 0.00 | 0.00 | 0.00 | 1012.1 | |
| 20260903030059 | 140 | 145 | 1.0 | 2.0 | 0.00 | 0.00 | 0.00 | 1011.8 | |
| 20260903025554 | 140 | 118 | 0.0 | 0.0 | 0.00 | 0.00 | 0.00 | 1011.6 | |
| 20260903025049 | 140 | 93 | 0.0 | 0.0 | 0.00 | 0.00 | 0.00 | 1011.6 | |
| 20260903024549 | 140 | 130 | 7.0 | 7.0 | 0.00 | 0.00 | 0.00 | 1011.8 | |
| 20260903024043 | 140 | 103 | 6.0 | 8.0 | 0.00 | 0.00 | 0.00 | 1011.7 | |
| 20260903023539 | 140 | 105 | 4.0 | 6.0 | 0.00 | 0.00 | 0.00 | 1011.6 | |
| 20260903023035 | 140 | 100 | 7.0 | 8.0 | 0.00 | 0.00 | 0.00 | 1011.8 | |
| 20260903022534 | 140 | 116 | 5.0 | 9.0 | 0.00 | 0.00 | 0.00 | 1011.5 | |
| 20260903022032 | 140 | 102 | 0.0 | 0.0 | 0.00 | 0.00 | 0.00 | 1011.4 | |
| 20260903021527 | 140 | 97 | 3.0 | 6.0 | 0.00 | 0.00 | 0.00 | 1011.2 | |
| 20260903021022 | 140 | 127 | 1.0 | 3.0 | 0.00 | 0.00 | 0.00 | 1011.2 | |
| 20260903020518 | 140 | 143 | 3.0 | 5.0 | 0.00 | 0.00 | 0.00 | 1011.1 | |
| 20260903020017 | 140 | 94 | 7.0 | 8.0 | 0.00 | 0.00 | 0.00 | 1010.7 | |
| 20260903015513 | 140 | 92 | 0.0 | 0.0 | 0.00 | 0.00 | 0.00 | 1010.7 | |
| 20260903015008 | 140 | 77 | 0.0 | 0.0 | 0.00 | 0.00 | 0.00 | 1010.7 | |
| 20260903014502 | 140 | 100 | 0.0 | 0.0 | 0.00 | 0.00 | 0.00 | 1010.7 | |
| 20260903013957 | 140 | 82 | 0.0 | 0.0 | 0.00 | 0.00 | 0.00 | 1010.3 | |
| 20260903013457 | 140 | 71 | 0.0 | 0.0 | 0.00 | 0.00 | 0.00 | 1010.5 | |
| 20260903012956 | 140 | 84 | 0.0 | 0.0 | 0.00 | 0.00 | 0.00 | 1010.6 | |
| 20260903012455 | 140 | 108 | 0.0 | 0.0 | 0.00 | 0.00 | 0.00 | 1010.6 | |
| 20260903011954 | 140 | 94 | 0.0 | 0.0 | 0.00 | 0.00 | 0.00 | 1010.5 | |
| 20260903011449 | 140 | 96 | 0.0 | 0.0 | 0.00 | 0.00 | 0.00 | 1010.3 | |
| 20260903010944 | 140 | 95 | 0.0 | 0.0 | 0.00 | 0.00 | 0.00 | 1010.4 | |
| 20260903010439 | 140 | 92 | 0.0 | 0.0 | 0.00 | 0.00 | 0.00 | 1010.1 | |
| 20260903005937 | 140 | 84 | 0.0 | 0.0 | 0.00 | 0.00 | 0.00 | 1010.4 | |
| 20260903005433 | 140 | 86 | 0.0 | 1.0 | 0.00 | 0.00 | 0.00 | 1010.3 | |
| 20260903004929 | 140 | 80 | 0.0 | 0.0 | 0.00 | 0.00 | 0.00 | 1010.3 | |
| 20260903004424 | 140 | 83 | 0.0 | 0.0 | 0.00 | 0.00 | 0.00 | 1010.2 | |
| 20260903003920 | 140 | 92 | 1.0 | 5.0 | 0.00 | 0.00 | 0.00 | 1010.4 | |
| 20260903003420 | 140 | 88 | 4.0 | 8.0 | 0.00 | 0.00 | 0.00 | 1010.0 | |
| 20260903002920 | 140 | 90 | 0.0 | 0.0 | 0.00 | 0.00 | 0.00 | 1010.1 | |
| 20260903002415 | 140 | 97 | 4.0 | 6.0 | 0.00 | 0.00 | 0.00 | 1009.9 | |
| 20260903001915 | 140 | 91 | 0.0 | 0.0 | 0.00 | 0.00 | 0.00 | 1010.1 | |
| 20260903001410 | 140 | 81 | 0.0 | 0.0 | 0.00 | 0.00 | 0.00 | 1010.2 | |
| 20260903000909 | 140 | 67 | 0.0 | 2.0 | 0.00 | 0.00 | 0.00 | 1010.2 | |
| 20260903000405 | 140 | 68 | 4.0 | 8.0 | 0.00 | 0.00 | 0.00 | 1010.0 | |
| 20260902235903 | 140 | 96 | 8.0 | 9.0 | 0.00 | 0.00 | 0.00 | 1009.9 | |
| 20260902235358 | 140 | 104 | 5.0 | 6.0 | 0.00 | 0.00 | 0.00 | 1009.9 | |
| 20260902234857 | 140 | 65 | 1.0 | 3.0 | 0.00 | 0.00 | 0.00 | 1010.2 | |
| 20260902234351 | 140 | 77 | 6.0 | 11.0 | 0.00 | 0.00 | 0.00 | 1010.2 | |
| 20260902233850 | 140 | 85 | 8.0 | 10.0 | 0.00 | 0.00 | 0.00 | 1009.9 | |
| 20260902233345 | 140 | 77 | 9.0 | 10.0 | 0.00 | 0.00 | 0.00 | 1010.0 | |
| 20260902232843 | 140 | 71 | 9.0 | 16.0 | 0.00 | 0.00 | 0.00 | 1010.1 | |
| 20260902232339 | 140 | 68 | 8.0 | 11.0 | 0.00 | 0.00 | 0.00 | 1009.8 | |
| 20260902231838 | 140 | 116 | 1.0 | 3.0 | 0.00 | 0.00 | 0.00 | 1009.9 | |
| 20260902231333 | 140 | 64 | 4.0 | 9.0 | 0.00 | 0.00 | 0.00 | 1009.9 | |
| 20260902230828 | 140 | 118 | 4.0 | 6.0 | 0.00 | 0.00 | 0.00 | 1009.9 | |
| 20260902230327 | 140 | 77 | 4.0 | 8.0 | 0.00 | 0.00 | 0.00 | 1010.2 | |
| 20260902225822 | 140 | 58 | 2.0 | 6.0 | 0.00 | 0.00 | 0.00 | 1009.8 | |
| 20260902225317 | 140 | 65 | 0.0 | 1.0 | 0.00 | 0.00 | 0.00 | 1010.0 | |
| 20260902224816 | 140 | 77 | 1.0 | 5.0 | 0.00 | 0.00 | 0.00 | 1010.0 | |
| 20260902224311 | 140 | 77 | 1.0 | 5.0 | 0.00 | 0.00 | 0.00 | 1009.8 | |
| 20260902223808 | 140 | 86 | 1.0 | 2.0 | 0.00 | 0.00 | 0.00 | 1009.9 | |
| 20260902223308 | 140 | 18 | 2.0 | 5.0 | 0.00 | 0.00 | 0.00 | 1009.8 | |
| 20260902222807 | 140 | 82 | 2.0 | 6.0 | 0.00 | 0.00 | 0.00 | 1009.8 | |
| 20260902222301 | 140 | 81 | 10.0 | 11.0 | 0.00 | 0.00 | 0.00 | 1010.0 | |
| 20260902221801 | 140 | 51 | 0.0 | 1.0 | 0.00 | 0.00 | 0.00 | 1009.9 | |
| 20260902221300 | 140 | 39 | 1.0 | 3.0 | 0.00 | 0.00 | 0.00 | 1010.0 | |
| 20260902220756 | 140 | 95 | 1.0 | 3.0 | 0.00 | 0.00 | 0.00 | 1010.0 | |
| 20260902220255 | 140 | 22 | 9.0 | 14.0 | 0.00 | 0.00 | 0.00 | 1010.1 | |
| 20260902215751 | 140 | 50 | 5.0 | 7.0 | 0.00 | 0.00 | 0.00 | 1009.8 | |
| 20260902215246 | 140 | 29 | 5.0 | 7.0 | 0.00 | 0.00 | 0.00 | 1010.2 | |
| 20260902214742 | 140 | 357 | 5.0 | 8.0 | 0.00 | 0.00 | 0.00 | 1010.0 | |
| 20260902214241 | 140 | 36 | 7.0 | 11.0 | 0.00 | 0.00 | 0.00 | 1010.3 | |
| 20260902213737 | 140 | 87 | 0.0 | 1.0 | 0.00 | 0.00 | 0.00 | 1010.5 | |
| 20260902213236 | 140 | 66 | 0.0 | 0.0 | 0.00 | 0.00 | 0.00 | 1010.4 | |
| 20260902212736 | 140 | 84 | 8.0 | 9.0 | 0.00 | 0.00 | 0.00 | 1010.3 | |
| 20260902212233 | 140 | 79 | 4.0 | 8.0 | 0.00 | 0.00 | 0.00 | 1010.3 |